RH
33 36 36 35 33 38 51 60 59 50 44 42 45 49 58 67 68 73 72 70 76 80 83 84 87 86 83 82 85 88 90 86 87 89 88 85 88 88
35 35 34 32 31 35 55 64 65 63 60 51 53 58 65 68 69 72 72 82 82 83 83 84 85 88 87 84 85 85 87 87 87 83 92 93 94 94
33 33 29 23 26 50 59 62 66 67 67 60 63 67 72 72 71 78 81 87 81 74 76 78 82 87 91 91 92 90 92 89 92 93 93 96 98 99
32 29 23 27 27 50 62 65 67 71 72 76 75 75 73 78 87 86 82 71 67 64 73 85 90 91 91 92 94 94 95 96 98 96 98 96 96 96
31 24 21 25 45 59 64 72 78 77 78 82 78 75 85 93 88 78 71 67 70 76 78 84 88 93 95 94 92 91 93 94 96 95 98 96 94 95
25 28 34 42 69 75 81 80 76 81 79 82 88 96 95 82 74 67 68 76 81 84 83 91 89 90 90 87 92 96 96 95 97 97 97 96 96 96
38 55 63 71 57 95 94 91 88 89 89 92 98 93 84 72 66 74 86 89 86 90 84 84 78 83 87 90 92 94 94 96 98 99 99 100 99 99
61 60 73 88 89 94 92 93 95 95 97 100 95 86 71 70 80 91 100 99 94 85 87 85 89 89 89 88 90 95 97 99 100 99 99 98 100 98
60 78 83 82 92 90 95 96 96 96 97 92 84 76 83 87 90 94 94 97 96 88 97 89 88 88 87 82 92 99 100 100 100 100 100 99 99 98
83 86 85 87 89 95 96 96 98 84 79 83 87 90 94 93 98 98 98 96 95 95 93 94 86 91 87 75 69 66 96 100 100 100 100 100 99 99
82 82 89 95 94 94 98 90 84 78 82 93 100 100 99 100 100 100 95 98 98 94 96 95 89 95 86 69 73 75 89 96 97 98 99 98 99 100
78 82 86 94 91 98 96 88 86 88 95 95 93 93 94 96 100 100 96 97 100 99 89 97 97 100 96 84 76 60 68 72 87 97 97 97 98 98
84 84 91 89 96 95 95 93 94 98 100 98 95 94 94 94 99 97 97 99 99 98 78 100 99 100 100 97 79 67 77 79 82 83 91 90 99 98
91 92 89 95 96 96 93 95 100 100 100 98 100 99 99 93 85 85 82 84 91 96 88 94 98 100 100 99 100 72 70 72 84 92 94 93 94 98
96 93 95 97 89 62 82 82 85 100 100 100 100 100 100 86 86 89 84 87 85 80 81 84 99 98 100 100 100 99 98 79 84 98 97 97 97 96
94 95 94 90 90 87 91 98 100 100 100 100 100 100 100 97 91 93 97 92 95 76 76 81 93 100 98 100 100 97 70 100 97 96 98 100 97 98
97 92 85 82 89 94 97 100 100 100 100 100 100 100 98 99 88 90 95 97 99 95 84 79 86 100 99 98 97 75 91 94 94 97 96 98 98 98
97 88 87 94 98 100 100 99 98 100 100 98 95 98 97 95 94 91 95 98 100 96 100 95 99 100 95 85 89 92 90 96 96 95 98 98 98 95
92 93 100 100 100 100 100 98 92 92 95 98 98 96 96 96 96 94 94 96 94 96 100 100 100 100 98 98 72 69 97 93 98 99 99 98 98 96
84 100 100 100 98 93 92 95 92 92 96 97 96 97 97 97 95 95 95 98 98 100 100 96 100 99 98 100 100 67 91 97 98 97 97 89 99 97
92 97 95 86 89 94 96 94 95 95 97 96 95 96 96 96 94 96 96 96 100 100 100 100 88 92 95 96 100 92 77 86 98 98 97 100 100 87
85 87 71 89 94 96 96 97 95 96 98 97 96 96 97 97 96 95 96 97 96 100 100 100 86 99 100 100 100 100 82 85 87 97 97 98 99 98
75 68 78 92 96 97 98 98 96 96 97 96 96 96 96 96 96 96 96 97 97 100 100 100 100 100 99 100 100 100 87 91 88 95 95 97 98 98
Wind_Speed
16 18 19 20 21 21 20 18 22 30 32 19 11 23 25 26 27 27 27 28 29 32 32 33 34 36 39 39 41 41 42 44 45 46 46 49 48 47
18 20 21 21 22 21 20 19 20 25 35 27 29 28 27 28 27 27 29 31 32 32 33 35 36 38 39 39 39 39 40 42 44 45 46 46 45 46
20 22 23 23 22 19 18 19 20 22 33 38 31 30 31 29 30 28 29 30 33 37 37 36 35 36 36 37 38 39 40 41 41 41 42 42 43 42
22 24 24 22 22 19 18 19 21 23 28 39 37 36 33 31 29 31 34 36 34 33 34 35 35 35 35 35 37 38 40 40 41 41 41 41 42 41
23 23 23 22 20 17 19 21 22 25 28 35 41 39 37 30 37 39 32 31 28 30 32 33 35 35 34 34 36 39 40 40 41 41 41 41 41 42
23 22 22 21 18 19 21 23 25 28 31 34 37 38 30 39 38 35 34 33 33 32 37 33 33 33 33 37 39 39 38 38 39 39 40 40 40 40
21 21 19 19 23 20 22 24 26 29 31 37 28 36 40 37 34 33 35 38 42 32 37 31 34 42 41 37 36 35 34 35 37 38 38 38 38 39
20 20 19 20 20 22 24 24 25 29 37 31 37 36 35 32 34 36 37 40 42 30 30 47 38 42 41 40 36 36 36 37 38 38 38 39 40 41
20 19 19 19 21 23 24 24 29 23 30 34 31 31 33 33 38 39 41 35 38 42 38 47 38 41 41 41 37 35 33 34 35 35 37 38 39 41
17 18 19 20 20 23 27 29 27 30 25 25 26 32 34 33 35 34 34 37 37 35 30 40 41 38 41 45 31 24 28 29 30 33 34 35 36 38
17 19 20 20 21 25 26 32 29 27 24 24 28 28 32 31 26 27 30 32 38 36 31 29 31 41 44 36 22 25 30 34 31 32 33 33 35 37
18 19 19 20 25 24 28 28 30 27 27 31 28 26 23 22 21 20 27 30 33 36 24 27 36 29 31 25 29 41 38 32 33 35 30 28 29 35
20 20 20 22 24 27 27 25 23 27 29 26 24 22 21 21 21 23 27 28 29 33 35 29 34 32 25 40 43 42 38 39 39 38 37 38 32 30
20 20 23 25 28 27 24 21 22 24 21 21 22 23 24 26 27 30 30 28 29 32 32 25 31 30 32 39 42 43 43 40 41 40 43 45 41 35
20 23 26 27 26 23 20 20 21 18 19 21 23 26 26 28 31 34 32 31 31 30 27 25 26 28 29 36 42 45 39 43 38 39 47 46 46 40
22 25 24 23 19 19 18 17 18 18 20 23 24 25 26 29 33 33 32 32 33 33 29 27 25 25 30 34 35 39 37 37 45 47 47 48 44 40
26 21 18 18 18 17 18 19 19 20 22 23 26 27 29 31 33 31 31 30 30 35 37 31 26 26 28 27 32 30 35 40 45 45 45 47 45 36
19 16 16 16 17 18 19 23 25 25 25 27 27 30 32 32 32 31 29 29 31 35 34 32 32 32 33 31 16 26 36 40 42 40 40 42 45 33
13 14 15 16 17 19 21 26 30 28 28 28 30 32 31 30 31 31 30 30 32 34 34 29 27 29 31 33 41 28 34 36 40 39 36 40 39 32
14 15 16 17 19 21 26 30 30 28 29 30 32 30 28 31 32 31 30 31 32 34 33 30 25 27 30 32 36 34 27 32 36 37 37 41 34 25
16 16 17 19 21 24 28 29 29 28 31 32 30 28 30 32 34 31 30 30 29 31 30 31 29 27 28 25 25 32 28 29 30 26 27 35 38 28
17 19 19 20 22 26 28 29 28 29 31 31 29 29 30 33 33 30 30 31 31 30 30 30 29 26 26 23 28 29 31 33 30 20 17 18 24 20
19 20 19 20 23 26 28 28 27 29 29 29 29 29 31 34 29 28 28 29 29 28 27 30 29 26 23 24 24 27 24 31 30 30 27 18 13 13
Wind_Direction
316 313 310 307 306 304 299 295 298 303 306 304 288 302 305 306 304 303 301 299 296 295 294 292 291 290 289 287 286 283 282 280 279 277 277 276 274 272
310 308 310 309 306 302 297 292 288 290 292 295 301 303 304 303 304 302 300 297 296 294 295 293 292 290 288 287 286 284 282 280 278 276 274 272 268 264
309 310 310 308 306 300 295 293 291 291 291 297 301 303 304 305 303 301 300 298 298 296 294 293 292 291 290 288 287 285 282 281 280 278 275 273 270 268
309 310 311 308 306 302 300 298 296 295 295 297 303 305 305 306 301 304 305 300 297 295 297 297 295 292 291 290 288 286 284 282 281 279 277 274 272 272
309 309 308 307 305 303 302 301 300 299 296 296 299 301 303 306 308 305 305 302 300 300 299 296 295 293 293 291 290 288 285 282 280 277 274 272 270 267
307 306 306 303 302 305 303 301 300 299 298 295 294 298 305 307 308 307 308 307 306 305 300 300 298 296 295 293 291 288 286 283 279 276 273 271 270 267
303 303 302 298 303 303 303 303 301 298 297 298 298 305 308 308 308 307 306 309 307 309 305 306 301 299 301 298 294 291 288 285 281 278 275 272 270 267
303 304 303 304 304 304 303 302 299 302 299 303 307 303 302 304 305 305 306 310 308 314 304 303 305 303 302 301 298 294 291 286 282 279 276 273 269 266
305 305 304 303 306 306 305 306 304 302 299 300 298 298 300 301 305 306 305 303 299 304 308 302 307 301 301 305 302 298 294 292 287 283 279 274 269 265
304 305 305 306 307 309 309 310 305 308 302 297 296 295 296 299 298 298 297 299 303 304 307 297 307 304 308 312 318 317 312 299 294 288 281 276 272 269
308 310 307 304 308 314 310 311 311 306 304 303 303 299 299 299 298 301 303 304 304 308 311 301 308 309 315 321 318 316 306 308 313 304 296 284 276 269
311 309 305 306 311 311 314 310 308 307 310 314 306 304 305 305 306 300 299 300 305 309 314 308 312 318 317 310 311 324 329 328 325 325 317 311 294 275
310 309 310 309 311 309 308 306 302 310 308 307 309 309 309 308 304 311 314 308 303 300 319 310 305 306 296 302 313 322 325 322 323 325 324 323 306 292
308 308 307 308 309 311 311 308 309 309 309 311 310 311 307 314 321 324 322 320 316 310 320 318 301 301 301 300 297 320 322 322 323 322 324 323 316 304
312 309 308 310 313 316 314 317 321 317 313 310 309 311 314 318 323 328 326 325 321 323 326 323 312 308 302 297 296 302 308 325 328 318 318 317 316 316
311 310 309 312 313 316 320 321 320 319 315 311 308 312 318 320 326 329 325 329 324 328 332 331 323 315 308 303 298 301 322 305 316 323 328 325 320 320
309 313 311 314 317 320 322 324 325 323 320 321 319 322 323 324 328 332 330 326 322 327 331 336 333 324 312 311 309 313 314 314 326 328 333 327 329 332
314 309 311 316 319 322 324 328 331 331 329 327 329 329 328 330 331 331 329 328 324 329 328 335 334 329 331 325 309 305 314 321 332 334 336 329 330 346
315 314 317 319 320 322 325 329 333 335 332 331 330 333 332 329 331 332 331 330 328 331 331 328 331 332 322 315 328 335 322 336 339 332 339 340 339 344
323 321 320 322 324 327 331 332 333 333 334 334 335 334 334 334 334 334 331 329 328 328 324 334 333 331 322 310 311 328 355 340 342 334 339 342 343 355
326 324 324 327 330 332 333 332 331 333 336 335 338 338 337 336 336 335 331 331 326 329 320 326 335 332 326 325 314 322 344 353 347 336 346 351 349 354
327 326 330 332 333 333 332 332 332 335 337 337 338 337 339 339 337 335 334 332 333 333 327 329 337 336 334 322 314 322 338 348 353 355 0 4 1 349
327 329 332 333 334 333 332 331 331 335 337 336 338 340 340 339 340 338 335 335 336 332 332 334 335 335 338 334 326 330 345 354 356 0 11 15 23 22